Taunton, MA

10:38 AM EST on February 23, 2018 (GMT -0500)
Taunton Municipal

Weather History for KTAN - October, 2012

Change the Weather History Date:

Monday, October 8, 2012

  Actual Average Record
Temperature  
Mean Temperature 47 °F -  
Max Temperature 57 °F 64 °F 81 °F (1990)
Min Temperature 37 °F 41 °F 22 °F (1954)
Degree Days  
Heating Degree Days 18    
Moisture  
Dew Point 41 °F    
Average Humidity 83    
Maximum Humidity 96    
Minimum Humidity 53    
Precipitation  
Precipitation 0.05 in - - ()
Sea Level Pressure  
Sea Level Pressure 30.18 in    
Wind  
Wind Speed 1 mph (WNW)    
Max Wind Speed 5 mph    
Max Gust Speed -    
Visibility 6 miles    
Events Fog , Rain    
Averages and records for this station are not official NWS values.
T = Trace of Precipitation, MM = Missing Value Source: NWS Daily Summary

Daily Weather History Graph

Daily Weather History Graph

Search for Another Location

Airport or City:

Trip Planner

Search our weather history database for the weather conditions in past years. The results will help you decide how hot, cold, wet, or windy it might be!

Date:

Astronomy

Oct. 08, 2012 Rise Set
Actual Time 6:49 AM EDT 6:13 PM EDT
Civil Twilight 6:21 AM EDT 6:41 PM EDT
Nautical Twilight 5:48 AM EDT 7:13 PM EDT
Astronomical Twilight 5:16 AM EDT 7:45 PM EDT
Moon No Moon Rise 2:06 PM EDT (10/8)
Length of Visible Light 12h 19m
Length of Day
11h 24m
Waning Gibbous, 46% of the Moon is Illuminated
Oct 8
Waning Gibbous
Oct 15
New
Oct 21
First Quarter
Oct 29
Full
Nov 6
Last Quarter

Hourly Weather History & Observations

Time (EDT) Temp. Windchill Dew Point Humidity Pressure Visibility Wind Dir Wind Speed Gust Speed Precip Events Conditions
12:52 AM 48.0 °F - 45.0 °F 89% 30.07 in 7.0 mi Calm Calm - 0.05 in Rain Light Rain
1:52 AM 46.9 °F - 45.0 °F 93% 30.09 in 10.0 mi Calm Calm - 0.00 in   Mostly Cloudy
2:52 AM 46.0 °F 44.8 °F 43.0 °F 89% 30.07 in 10.0 mi WNW 3.5 mph - N/A   Scattered Clouds
3:52 AM 43.0 °F - 41.0 °F 93% 30.09 in 10.0 mi Calm Calm - N/A   Clear
4:03 AM 41.0 °F - 39.0 °F 93% 30.09 in 1.2 mi Calm Calm - N/A   Clear
4:14 AM 41.0 °F - 37.9 °F 89% 30.10 in 1.8 mi Calm Calm - N/A   Partly Cloudy
4:18 AM 39.9 °F - 37.9 °F 93% 30.10 in 1.0 mi Calm Calm - N/A   Mist
4:25 AM 41.0 °F - 37.9 °F 89% 30.10 in 0.2 mi Calm Calm - N/A Fog Fog
4:36 AM 39.9 °F 37.8 °F 37.9 °F 93% 30.10 in 1.2 mi West 3.5 mph - N/A   Partly Cloudy
4:38 AM 39.9 °F - 37.9 °F 93% 30.11 in 2.0 mi Calm Calm - N/A   Partly Cloudy
4:52 AM 39.9 °F - 37.0 °F 89% 30.12 in 1.2 mi Calm Calm - N/A   Clear
5:00 AM 39.0 °F 36.8 °F 37.0 °F 93% 30.12 in 2.0 mi WNW 3.5 mph - N/A   Clear
5:08 AM 41.0 °F 38.0 °F 39.0 °F 93% 30.11 in 7.0 mi West 4.6 mph - N/A   Clear
5:52 AM 41.0 °F - 39.9 °F 96% 30.13 in 9.0 mi Calm Calm - N/A   Clear
6:09 AM 39.9 °F - 37.0 °F 89% 30.14 in 1.5 mi Calm Calm - N/A   Clear
6:13 AM 39.0 °F - 37.0 °F 93% 30.14 in 0.8 mi Calm Calm - N/A   Clear
6:52 AM 37.0 °F - 35.1 °F 93% 30.15 in 0.5 mi Calm Calm - N/A Fog Fog
7:05 AM 37.0 °F - 35.1 °F 93% 30.14 in 1.0 mi Calm Calm - N/A   Clear
7:15 AM 37.9 °F - 36.0 °F 93% 30.15 in 0.5 mi Calm Calm - N/A Fog Fog
7:36 AM 41.0 °F - 39.0 °F 93% 30.17 in 1.5 mi Calm Calm - N/A   Clear
7:42 AM 42.1 °F - 41.0 °F 96% 30.17 in 3.0 mi Calm Calm - N/A   Clear
7:52 AM 44.1 °F - 42.1 °F 93% 30.18 in 9.0 mi Calm Calm - N/A   Clear
8:52 AM 48.0 °F - 44.1 °F 86% 30.21 in 10.0 mi NW 3.5 mph - N/A   Clear
9:52 AM 52.0 °F - 43.0 °F 71% 30.23 in 10.0 mi Variable 4.6 mph - N/A   Clear
10:52 AM 55.9 °F - 43.0 °F 62% 30.24 in 10.0 mi Variable 3.5 mph - N/A   Partly Cloudy
11:26 AM 55.0 °F - 41.0 °F 59% 30.24 in 10.0 mi North 4.6 mph - N/A   Mostly Cloudy
11:39 AM 54.0 °F - 42.1 °F 64% 30.24 in 10.0 mi Calm Calm - N/A   Scattered Clouds
11:52 AM 57.9 °F - 42.1 °F 56% 30.24 in 10.0 mi Variable 3.5 mph - N/A   Partly Cloudy
12:52 PM 57.0 °F - 42.1 °F 57% 30.23 in 10.0 mi Calm Calm - N/A   Overcast
1:52 PM 57.0 °F - 39.9 °F 53% 30.24 in 10.0 mi Calm Calm - N/A   Overcast
2:52 PM 57.0 °F - 41.0 °F 55% 30.26 in 10.0 mi West 3.5 mph - N/A   Partly Cloudy
3:52 PM 57.0 °F - 42.1 °F 57% 30.25 in 10.0 mi Calm Calm - N/A   Partly Cloudy
4:52 PM 55.0 °F - 45.0 °F 69% 30.25 in 10.0 mi SE 4.6 mph - N/A   Mostly Cloudy
6:52 PM 50.0 °F - 45.0 °F 83% 30.29 in 10.0 mi SE 3.5 mph - N/A   Clear
8:52 PM 48.9 °F - 46.0 °F 90% 30.31 in 10.0 mi Calm Calm - N/A   Partly Cloudy
9:52 PM 48.0 °F - 45.0 °F 89% 30.30 in 10.0 mi Calm Calm - N/A   Partly Cloudy
10:52 PM 48.9 °F - 46.0 °F 90% 30.30 in 10.0 mi Calm Calm - N/A   Clear
11:52 PM 46.9 °F - 45.0 °F 93% 30.29 in 10.0 mi Calm Calm - N/A   Clear